User: anonymous
Location: Goheenville
(40.9070°N, 79.3720°W)
Time: 09:41:15
(UTC-04:00)
Language:

NOAA 11 - Orbit

View from above orbital plane
View from above orbital plane
View from above satellite
View from above satellite

Ground track
Ground track

The orbit data is extracted from the following two-line orbital elements,

1 19531U 88089A   14243.31592821 -.00000032  00000-0  55735-5 0  9375
2 19531 098.6768 320.1586 0012280 085.8854 274.3724 14.15093243338365
Epoch (UTC): 31 August 2014 07:34:56
Eccentricity: 0.0012280
inclination: 98.6768°
perigee height: 833 km
apogee height: 851 km
right ascension of ascending node: 320.1586°
argument of perigee: 85.8854°
revolutions per day: 14.15093243
mean anomaly at epoch: 274.3724°
orbit number at epoch: 33836

The dashed part of the orbit path shows where the satellite is in the earth's shadow,  

DLR